Location: *
(46.1866°S, 178.5290°W)
Time: 18:24:37
(UTC+00:00)

Cosmos 2333 Rocket - Pass Details

Date: 19 May 2021
Orbit: 839 x 863 km, 70.8° (Epoch: 17 June)

Event Time Altitude Azimuth Distance (km) Brightness Sun altitude
Rises 05:37:22 0° 296° (WNW) 3,401 7.3 -11.9°
Reaches altitude 10° 05:40:14 10° 283° (WNW) 2,473 6.2 -12.4°
Maximum altitude 05:44:53 26° 228° (SW) 1,641 4.1 -13.2°
Drops below altitude 10° 05:49:36 10° 172° (S) 2,496 4.4 -14.0°
Enters shadow 05:52:12 - 160° (SSE) 3,334 5.0 -14.4°
